DW3735 Weather Reports


Display with metric or nautical units.
time (UTC)temp
F
wind
direction
speed
MPH
gust
MPH
rain 1hr
in
rain 24hr
in
rain mn
in
humidity
%
barometer
mb
20260901175516 75 158 3.0 8.0 0.00 0.00 0.00 56 1015.8
20260901174517 74 68 3.0 5.0 0.00 0.00 0.00 61 1015.7
20260901173517 74 68 4.0 7.0 0.00 0.00 0.00 60 1015.7
20260901172516 74 90 2.0 7.0 0.00 0.00 0.00 61 1015.9
20260901171516 74 90 3.0 5.0 0.00 0.00 0.00 60 1016.0
20260901170516 73 90 3.0 7.0 0.00 0.00 0.00 62 1016.2
20260901165516 73 90 4.0 7.0 0.00 0.00 0.00 62 1016.3
20260901164516 73 90 3.0 10.0 0.00 0.00 0.00 64 1016.5
20260901163516 72 90 2.0 4.0 0.00 0.00 0.00 65 1016.4
20260901162516 71 90 1.0 3.0 0.00 0.00 0.00 66 1016.5
20260901161557 71 90 2.0 4.0 0.00 0.00 0.00 66 1016.4
20260901160517 70 90 3.0 5.0 0.00 0.00 0.00 67 1016.5
20260901155537 70 158 2.0 5.0 0.00 0.00 0.00 68 1016.6
20260901154516 70 158 2.0 5.0 0.00 0.00 0.00 70 1016.8
20260901153517 69 158 4.0 6.0 0.00 0.00 0.00 68 1017.0
20260901152516 69 135 2.0 4.0 0.00 0.00 0.00 68 1017.0
20260901151517 69 113 2.0 3.0 0.00 0.00 0.00 69 1017.0
20260901150517 69 158 2.0 5.0 0.00 0.00 0.00 68 1017.1
20260901145516 68 158 3.0 7.0 0.00 0.00 0.00 69 1017.1
20260901144516 68 158 2.0 5.0 0.00 0.00 0.00 70 1017.3
20260901143516 68 158 2.0 7.0 0.00 0.00 0.00 70 1017.4
20260901142516 68 158 2.0 5.0 0.00 0.00 0.00 69 1017.4
20260901141517 68 158 2.0 6.0 0.00 0.00 0.00 69 1017.3
20260901140517 67 158 3.0 6.0 0.00 0.00 0.00 70 1017.4
20260901135516 67 158 3.0 7.0 0.00 0.00 0.00 69 1017.3
20260901134516 67 158 3.0 4.0 0.00 0.00 0.00 70 1017.4
20260901133517 67 135 3.0 5.0 0.00 0.00 0.00 69 1017.5
20260901132537 67 135 1.0 4.0 0.00 0.00 0.00 71 1017.6
20260901131517 67 158 2.0 5.0 0.00 0.00 0.00 70 1017.4
20260901130517 67 158 1.0 6.0 0.00 0.00 0.00 71 1017.4
20260901125517 67 158 2.0 8.0 0.00 0.00 0.00 72 1017.3
20260901124516 67 158 2.0 6.0 0.00 0.00 0.00 72 1017.1
20260901123516 67 158 2.0 6.0 0.00 0.00 0.00 71 1017.0
20260901122516 67 158 2.0 5.0 0.00 0.00 0.00 72 1017.0
20260901121537 67 158 3.0 7.0 0.00 0.00 0.00 73 1016.9
20260901120516 66 135 1.0 5.0 0.00 0.00 0.00 75 1016.8
20260901115516 66 135 1.0 3.0 0.00 0.00 0.00 76 1016.8
20260901114516 65 0.0 4.0 0.00 0.00 0.00 77 1016.7
20260901113516 64 0.0 0.0 0.00 0.00 0.00 80 1016.6
20260901112516 63 0.0 0.0 0.00 0.00 0.00 86 1016.6
20260901111516 63 0.0 0.0 0.00 0.01 0.00 86 1016.4
20260901110537 63 0.0 0.0 0.00 0.01 0.00 86 1016.4
20260901105516 62 0.0 0.0 0.00 0.01 0.00 85 1016.4
20260901104516 62 0.0 0.0 0.00 0.01 0.00 85 1016.4
20260901103518 62 0.0 0.0 0.00 0.01 0.00 87 1016.4
20260901102516 62 0.0 0.0 0.00 0.01 0.00 87 1016.4
20260901101516 62 0.0 0.0 0.00 0.01 0.00 91 1016.3
20260901100516 62 0.0 0.0 0.00 0.01 0.00 95 1016.3
20260901095517 62 0.0 0.0 0.00 0.01 0.00 95 1016.2
20260901094516 62 0.0 0.0 0.00 0.01 0.00 95 1016.2
20260901093516 62 0.0 0.0 0.00 0.01 0.00 95 1016.0
20260901092516 62 0.0 0.0 0.00 0.01 0.00 95 1016.1
20260901091516 62 0.0 0.0 0.00 0.01 0.00 96 1016.3
20260901090516 62 0.0 0.0 0.00 0.01 0.00 95 1016.5
20260901085516 62 0.0 0.0 0.00 0.01 0.00 95 1016.5
20260901084517 62 0.0 0.0 0.00 0.01 0.00 95 1016.5
20260901083516 62 0.0 0.0 0.00 0.01 0.00 95 1016.3
20260901082536 62 0.0 0.0 0.00 0.01 0.00 94 1016.4
20260901081517 62 0.0 0.0 0.00 0.01 0.00 94 1016.4
20260901080516 62 0.0 0.0 0.00 0.01 0.00 94 1016.3
20260901075521 62 0.0 0.0 0.00 0.01 0.00 94 1016.2
20260901074516 62 0.0 0.0 0.00 0.01 0.00 94 1016.4
20260901073517 62 0.0 0.0 0.00 0.01 0.00 95 1016.5
20260901072516 62 0.0 0.0 0.00 0.01 0.00 95 1016.7
20260901071516 62 0.0 0.0 0.00 0.01 0.00 94 1016.7
20260901070517 63 0.0 0.0 0.00 0.01 0.00 95 1016.7
20260901065537 63 0.0 0.0 0.00 0.01 0.00 95 1016.8
20260901064516 63 0.0 0.0 0.00 0.01 0.00 95 1016.9
20260901063516 63 0.0 0.0 0.00 0.01 0.00 95 1017.0
20260901062516 63 0.0 0.0 0.00 0.01 0.00 95 1017.0
20260901061536 63 0.0 0.0 0.00 0.01 0.00 95 1017.1
20260901060517 63 0.0 0.0 0.00 0.01 0.00 95 1017.1
20260901055516 63 0.0 0.0 0.00 0.01 0.00 95 1017.1
20260901054516 63 0.0 0.0 0.00 0.01 0.00 95 1017.1
20260901053517 63 0.0 0.0 0.00 0.01 0.00 95 1016.9
20260901052516 63 0.0 0.0 0.00 0.01 0.00 94 1017.1
20260901051517 63 0.0 0.0 0.00 0.01 0.00 95 1017.0
20260901050517 63 0.0 0.0 0.00 0.01 0.00 95 1016.8
20260901045517 63 0.0 0.0 0.00 0.01 0.00 93 1016.9
20260901044536 63 0.0 0.0 0.00 0.01 0.00 93 1016.9
20260901043517 63 0.0 0.0 0.00 0.01 0.00 93 1017.0
20260901042537 63 0.0 0.0 0.00 0.01 0.00 91 1016.9
20260901041517 63 0.0 0.0 0.00 0.01 0.00 92 1017.0
20260901040516 63 0.0 0.0 0.00 0.01 0.00 93 1017.1
20260901035517 63 0.0 0.0 0.00 0.01 0.01 88 1017.0
20260901034516 63 0.0 0.0 0.00 0.01 0.01 86 1017.0
20260901033517 63 0.0 0.0 0.00 0.01 0.01 86 1017.0
20260901032517 64 0.0 0.0 0.00 0.01 0.01 85 1017.0
20260901031517 64 0.0 0.0 0.00 0.01 0.01 85 1016.9
20260901030538 64 0.0 0.0 0.00 0.01 0.01 82 1017.1
20260901025517 64 0.0 0.0 0.00 0.01 0.01 82 1017.1
20260901024516 64 0.0 0.0 0.00 0.01 0.01 82 1017.3
20260901023517 64 0.0 0.0 0.00 0.01 0.01 81 1017.4
20260901022536 65 0.0 0.0 0.00 0.01 0.01 80 1017.3
20260901021517 65 0.0 0.0 0.00 0.01 0.01 79 1017.3
20260901020517 65 0.0 0.0 0.00 0.01 0.01 79 1017.0
20260901015517 65 0.0 0.0 0.00 0.01 0.01 78 1017.0
20260901014516 66 0.0 0.0 0.00 0.01 0.01 78 1016.9
20260901014018 66 0.0 0.0 0.00 0.01 0.01 78 1017.0
20260901013017 66 0.0 0.0 0.00 0.01 0.01 77 1017.2
20260901012018 66 0.0 0.0 0.00 0.01 0.01 77 1017.1
20260901011017 67 0.0 0.0 0.00 0.01 0.01 76 1017.0
20260901010019 67 0.0 0.0 0.00 0.01 0.01 76 1016.9
20260901005036 67 0.0 0.0 0.00 0.01 0.01 75 1017.0
20260901004018 67 0.0 0.0 0.00 0.01 0.01 75 1016.9
20260901003016 68 0.0 0.0 0.00 0.01 0.01 74 1016.8
20260901002019 68 0.0 0.0 0.00 0.01 0.01 74 1016.9
20260901001016 68 0.0 0.0 0.00 0.01 0.01 72 1016.9
20260901000037 69 0.0 0.0 0.00 0.01 0.01 73 1016.8
20260831235017 69 0.0 0.0 0.00 0.01 0.01 72 1016.7
20260831234017 70 0.0 0.0 0.00 0.01 0.01 71 1016.9
20260831233017 71 0.0 0.0 0.00 0.01 0.01 68 1016.9
20260831232017 72 0.0 0.0 0.00 0.01 0.01 65 1017.0
20260831231017 72 0.0 0.0 0.00 0.01 0.01 63 1017.2
20260831230018 73 0.0 0.0 0.00 0.01 0.01 65 1017.2
20260831225017 73 0.0 0.0 0.00 0.01 0.01 62 1017.1
20260831224017 73 0.0 0.0 0.00 0.01 0.01 63 1017.2
20260831223016 74 0.0 2.0 0.00 0.01 0.01 60 1017.1
20260831222017 74 0.0 0.0 0.00 0.01 0.01 60 1017.0
20260831221017 74 0.0 0.0 0.00 0.01 0.01 59 1016.9
20260831220018 74 0.0 0.0 0.00 0.01 0.01 58 1017.0
20260831215017 74 0.0 0.0 0.00 0.01 0.01 59 1017.1
20260831214058 75 0.0 0.0 0.00 0.01 0.01 60 1017.0
20260831213037 75 0.0 0.0 0.00 0.01 0.01 57 1017.0
20260831212017 75 0.0 0.0 0.00 0.01 0.01 56 1017.2
20260831211516 75 0.0 0.0 0.00 0.01 0.01 55 1017.2
20260831211016 75 0.0 2.0 0.00 0.01 0.01 56 1017.2
20260831210516 76 0.0 2.0 0.00 0.01 0.01 55 1017.3
20260831205518 76 0.0 0.0 0.00 0.01 0.01 53 1017.5
20260831205017 76 0.0 0.0 0.00 0.01 0.01 55 1017.5
20260831204537 76 0.0 0.0 0.00 0.01 0.01 55 1017.6
20260831203516 76 0.0 0.0 0.00 0.01 0.01 55 1017.5
20260831202538 76 0.0 0.0 0.00 0.01 0.01 52 1017.6
20260831201517 76 0.0 2.0 0.00 0.01 0.01 54 1017.6
20260831200517 76 0.0 1.0 0.00 0.01 0.01 52 1017.4
20260831195517 76 0.0 2.0 0.00 0.01 0.01 56 1017.6
20260831194537 76 135 1.0 4.0 0.00 0.01 0.01 58 1017.7
20260831194017 76 135 1.0 2.0 0.00 0.01 0.01 57 1017.7
20260831193016 75 0.0 0.0 0.00 0.01 0.01 61 1017.8
20260831192516 74 0.0 1.0 0.00 0.01 0.01 62 1017.9
20260831191516 74 0.0 2.0 0.00 0.01 0.01 58 1018.0
20260831190517 74 135 1.0 2.0 0.00 0.01 0.01 65 1018.0
20260831185517 74 135 1.0 3.0 0.00 0.01 0.01 66 1018.1
20260831184517 75 135 3.0 4.0 0.00 0.01 0.01 66 1018.1
20260831183517 74 135 1.0 4.0 0.00 0.01 0.01 67 1018.1
20260831182537 73 135 2.0 4.0 0.00 0.01 0.01 67 1018.3
20260831181517 73 135 3.0 4.0 0.00 0.01 0.01 69 1018.5
20260831180517 74 135 1.0 3.0 0.00 0.01 0.01 68 1018.5